Weather in Pustoviitove

Ukraine / Poltava Region     49°20′12″N   33°23′05″E
temp.,
°C
wind,
m/s
gust,
m/s
humid.,
%
clouds,
%
prec.,
mm/h
press.,
hPa
HPBL,
m
24 october, sun
sun2400:00+6wnw39545 0.0 1021193
03:00+5nnw226450 0.0 102220
06:00+4wnw346759 0.0 102278
09:00+6wnw476785 0.0 1024306
12:00+10nw675015 0.1 10241479
15:00+10nw785290 0.3 10231613
18:00+7nnw6959100 0.1 10261119
21:00+6nnw5862100 0.1 10281123
25 october, mon
mon2500:00+5nnw5863100 0.0 1028793
03:00+3nnw377172 0.0 1030169
06:00+2nnw38795 0.0 1031199
09:00+2n36715 0.0 1033301
12:00+6n33505 0.0 1033957
15:00+8n22404 0.0 10321188
18:00+5n11490 0.0 103311
21:00+4ne11544 0.0 103310
26 october, tue
tue2600:00+3se11575 0.0 103311
03:00+2sse22610 0.0 103310
06:00+1sse22630 0.0 103318
09:00+3sse24545 0.0 1033135
12:00+8s45370 0.0 1032696
15:00+10ssw45305 0.0 1030979
18:00+7s33400 0.0 102923
21:00+5s34430 0.0 102947
27 october, wed
wed2700:00+4s33450 0.0 102940
03:00+3s33500 0.0 102842
06:00+2s33670 0.0 102839
09:00+4s35580 0.0 1028162
12:00+9ssw454257 0.0 1026601
15:00+10wsw344093 0.0 1025784
18:00+7w12515 0.0 102410
21:00+6wsw225958 0.0 102510
28 october, thu
thu2800:00+5nw2284100 0.0 102518
03:00+5nnw3485100 0.0 102654
06:00+5nnw2277100 0.0 102628
09:00+6nw236951 0.0 1028101
12:00+11wnw34575 0.0 1028643
15:00+13w445587 0.0 1026895
18:00+10wsw3571100 0.0 1027104
21:00+9w367681 0.0 1026114